WetterOnline ( http://www.wetteronline.de )

Wetter aktuell Meßstetten

Aktuelles Wetter: Messstetten (900m)

6-stündlich | Neueste Meldungen
Ortszeit Temperatur Wetter
Do, 21.02. 7:00 -3.7° C Nebel
Do, 21.02. 1:00 -0.2° C leicht bewölkt
Mi, 20.02. 19:00 1.4° C bewölkt
Mi, 20.02. 13:00 6.0° C bewölkt
Mi, 20.02. 7:00 -0.3° C bedeckt
Mi, 20.02. 1:00 -1.4° C wolkig
Di, 19.02. 19:00 3.0° C bedeckt
Di, 19.02. 13:00 7.8° C wolkig
Ortszeit Temperatur Wetter
Do, 21.02. 8:00 -2.8° C wolkenlos
Do, 21.02. 7:50 -2.8° C wolkenlos
Do, 21.02. 7:40 -3.2° C wolkenlos
Do, 21.02. 7:30 -3.0° C fast wolkenlos
Do, 21.02. 7:20 -3.0° C fast wolkenlos
Do, 21.02. 7:10 -3.3° C Nebel
Do, 21.02. 7:00 -3.7° C Nebel
Do, 21.02. 6:30 -2.4° C Nebel
Do, 21.02. 6:00 -0.7° C wolkenlos
Do, 21.02. 5:30 -1.5° C wolkenlos
Do, 21.02. 5:00 -2.0° C Nebel
Ortszeit Relative Feuchte Sichtweite
Do, 21.02. 7:00 96% 0.9 km
Do, 21.02. 1:00 91% 13 km
Mi, 20.02. 19:00 86% 21 km
Mi, 20.02. 13:00 68% 30 km
Mi, 20.02. 7:00 98% 5.0 km
Mi, 20.02. 1:00 99% 2.4 km
Di, 19.02. 19:00 89% 19 km
Di, 19.02. 13:00 59% 20 km
Ortszeit Relative Feuchte Sichtweite
Do, 21.02. 8:00 98% 2.7 km
Do, 21.02. 7:50 98% -
Do, 21.02. 7:40 97% -
Do, 21.02. 7:30 98% 3.8 km
Do, 21.02. 7:20 98% -
Do, 21.02. 7:10 97% -
Do, 21.02. 7:00 96% 0.9 km
Do, 21.02. 6:30 98% 0.8 km
Do, 21.02. 6:00 100% 4.6 km
Do, 21.02. 5:30 98% 6 km
Do, 21.02. 5:00 100% 0.8 km
Ortszeit Niederschlagsmenge Niederschlagsart
Do, 21.02. 7:00 0.0 l/m2 in 12 Std. -
Do, 21.02. 1:00 0.0 l/m2 in 6 Std. -
Mi, 20.02. 19:00 0.0 l/m2 in 12 Std. -
Mi, 20.02. 13:00 0.0 l/m2 in 6 Std. -
Mi, 20.02. 7:00 0.0 l/m2 in 12 Std. -
Mi, 20.02. 1:00 0.0 l/m2 in 6 Std. -
Di, 19.02. 19:00 0.0 l/m2 in 12 Std. -
Di, 19.02. 13:00 0.0 l/m2 in 6 Std. -
Ortszeit Niederschlagsmenge Niederschlagsart
Do, 21.02. 8:00 0.0 l/m2 in 1 Std. -
Do, 21.02. 7:50 keine Meldung -
Do, 21.02. 7:40 keine Meldung -
Do, 21.02. 7:30 0.0 l/m2 in 1 Std. -
Do, 21.02. 7:20 keine Meldung -
Do, 21.02. 7:10 keine Meldung -
Do, 21.02. 7:00 0.0 l/m2 in 1 Std. -
Do, 21.02. 6:30 0.0 l/m2 in 1 Std. -
Do, 21.02. 6:00 0.0 l/m2 in 1 Std. -
Do, 21.02. 5:30 0.0 l/m2 in 1 Std. -
Do, 21.02. 5:00 0.0 l/m2 in 1 Std. -
Ortszeit Stärke Spitze Richtung
km/h Bft. km/h Grad Sektor
Do, 21.02. 7:00 0 0 4 - -
Do, 21.02. 1:00 4 1 7 110° O
Mi, 20.02. 19:00 2 1 22 90° O
Mi, 20.02. 13:00 11 2 29 260° W
Mi, 20.02. 7:00 4 1 7 120° SO
Mi, 20.02. 1:00 0 0 11 - -
Di, 19.02. 19:00 4 1 29 330° NW
Di, 19.02. 13:00 13 3 35 270° W
Ortszeit Stärke Spitze Richtung
km/h Bft. km/h Grad Sektor
Do, 21.02. 8:00 0 0 4 - -
Do, 21.02. 7:50 2 1 - 180° S
Do, 21.02. 7:40 0 0 - 210° SW
Do, 21.02. 7:30 0 0 4 - -
Do, 21.02. 7:20 0 0 - 340° N
Do, 21.02. 7:10 0 0 - 310° NW
Do, 21.02. 7:00 0 0 4 - -
Do, 21.02. 6:30 0 0 4 - -
Do, 21.02. 6:00 4 1 4 80° O
Do, 21.02. 5:30 4 1 4 110° O
Do, 21.02. 5:00 0 0 4 - -
Ortszeit Untergrenze Bedeckung Gattung
total tief tief mittel hoch
Do, 21.02. 7:00 10500 m 2/8 0/8 - - -
Do, 21.02. 1:00 3000 m 3/8 3/8 - - -
Mi, 20.02. 19:00 3300 m 8/8 4/8 - - -
Mi, 20.02. 13:00 660 m 7/8 7/8 - - -
Mi, 20.02. 7:00 630 m 8/8 8/8 - - -
Mi, 20.02. 1:00 240 m 7/8 2/8 - - -
Di, 19.02. 19:00 1020 m 8/8 8/8 - - -
Di, 19.02. 13:00 2700 m 6/8 4/8 - - -
Ortszeit Bedeckungsgrad in Achtel und Wolkenuntergrenze
Do, 21.02. 8:00 keine Wolken
Do, 21.02. 7:50 keine Wolken
Do, 21.02. 7:40 keine Wolken
Do, 21.02. 7:30 1(10500m)
Do, 21.02. 7:20 1(10500m)
Do, 21.02. 7:10 3(10500m)
Do, 21.02. 7:00 2(10500m)
Do, 21.02. 6:30 1(9000m)
Do, 21.02. 6:00 keine Wolken
Do, 21.02. 5:30 keine Wolken
Do, 21.02. 5:00 4(9000m) 4(9000m)
Ortszeit Stationsdruck (hPa) Tendenz (hPa in 3 Std.)
Do, 21.02. 7:00 922 + 0,5
Do, 21.02. 1:00 922 + 0,6
Mi, 20.02. 19:00 920 + 0,6
Mi, 20.02. 13:00 920 + 0,6
Mi, 20.02. 7:00 918 + 0,4
Mi, 20.02. 1:00 918 + 0,2
Di, 19.02. 19:00 917 + 0,7
Di, 19.02. 13:00 917 + 0,1
Ortszeit Stationsdruck (hPa) Tendenz (hPa in 3 Std.)
Do, 21.02. 8:00 923 + 0,6
Do, 21.02. 7:50 923 keine Meldung
Do, 21.02. 7:40 923 keine Meldung
Do, 21.02. 7:30 923 + 0,5
Do, 21.02. 7:20 923 keine Meldung
Do, 21.02. 7:10 922 keine Meldung
Do, 21.02. 7:00 922 + 0,5
Do, 21.02. 6:30 922 + 0,4
Do, 21.02. 6:00 922 + 0,1
Do, 21.02. 5:30 922 + 0,2
Do, 21.02. 5:00 922 + 0,1
Ortszeit Schneehöhe (cm)
Do, 21.02. 7:00 14
Do, 21.02. 1:00 14
Mi, 20.02. 19:00 14
Mi, 20.02. 13:00 14
Mi, 20.02. 7:00 15
Mi, 20.02. 1:00 15
Di, 19.02. 19:00 15
Di, 19.02. 13:00 17
Ortszeit Schneehöhe (cm)
Do, 21.02. 8:00 14
Do, 21.02. 7:50 14
Do, 21.02. 7:40 14
Do, 21.02. 7:30 14
Do, 21.02. 7:20 14
Do, 21.02. 7:10 14
Do, 21.02. 7:00 14
Do, 21.02. 6:30 14
Do, 21.02. 6:00 14
Do, 21.02. 5:30 14
Do, 21.02. 5:00 14
Link zu dieser Seite / Seite empfehlen

Das Wetter in ...